CW6338 Weather Reports


time (UTC)temp
C
wind
direction
speed
KPH
gust
KPH
rain 1hr
cm
rain 24hr
cm
rain mn
cm
humidity
%
barometer
mb
20260504150616 21 203 14.5 22.5 0.00 0.00 0.00 54 1003.9
20260504140616 19 158 9.7 16.1 0.00 0.00 0.00 62 1004.5
20260504130616 16 158 8.0 9.7 0.00 0.00 0.00 69 1005.0
20260504110615 11 135 4.8 8.0 0.00 0.00 0.00 79 1005.5
20260504100517 12 158 4.8 9.7 0.00 0.00 0.00 74 1006.0
20260504081516 12 203 3.2 4.8 0.00 0.00 0.00 68 1006.9
20260504080516 12 203 1.6 4.8 0.00 0.00 0.00 68 1006.9
20260504050536 13 225 1.6 3.2 0.00 0.00 0.00 67 1008.3
20260504045516 14 203 1.6 3.2 0.00 0.00 0.00 66 1008.4
20260504044516 14 158 1.6 1.6 0.00 0.00 0.00 65 1008.5
20260504043516 15 180 1.6 3.2 0.00 0.00 0.00 64 1008.7
20260504042516 15 225 3.2 6.4 0.00 0.00 0.00 65 1008.7
20260504041516 15 225 3.2 4.8 0.00 0.00 0.00 64 1008.7
20260504040536 15 203 4.8 6.4 0.00 0.00 0.00 64 1008.8
20260504035516 15 180 3.2 4.8 0.00 0.00 0.00 64 1008.8
20260504034536 15 225 4.8 11.3 0.00 0.00 0.00 63 1008.8
20260504033516 15 203 4.8 11.3 0.00 0.00 0.00 63 1009.0
20260504032536 15 180 3.2 6.4 0.00 0.00 0.00 62 1009.1
20260504031516 15 180 3.2 6.4 0.00 0.00 0.00 61 1009.0
20260504030516 16 203 4.8 9.7 0.00 0.00 0.00 59 1009.0
20260504025515 16 158 1.6 4.8 0.00 0.00 0.00 58 1009.1
20260504024515 16 225 8.0 9.7 0.00 0.00 0.00 58 1009.0
20260504023516 16 203 3.2 4.8 0.00 0.00 0.00 57 1009.0
20260504022515 16 225 1.6 4.8 0.00 0.00 0.00 56 1009.0
20260504021516 16 135 4.8 8.0 0.00 0.00 0.00 56 1008.9
20260504020515 17 225 6.4 8.0 0.00 0.00 0.00 54 1008.9
20260504015516 17 203 3.2 9.7 0.00 0.00 0.00 52 1008.9
20260504014616 17 203 4.8 8.0 0.00 0.00 0.00 52 1008.8
20260504013515 17 225 6.4 11.3 0.00 0.00 0.00 51 1008.8
20260504012535 18 225 6.4 8.0 0.00 0.00 0.00 49 1008.8
20260504011515 18 203 4.8 6.4 0.00 0.00 0.00 48 1008.7
20260504010536 18 248 6.4 11.3 0.00 0.00 0.00 48 1008.8
20260504005515 19 248 3.2 6.4 0.00 0.00 0.00 47 1008.8
20260504004515 19 225 6.4 11.3 0.00 0.00 0.00 46 1008.7
20260504003517 20 225 1.6 4.8 0.00 0.00 0.00 45 1008.7
20260504002517 20 248 4.8 11.3 0.00 0.00 0.00 44 1008.7
20260504001517 20 225 8.0 12.9 0.00 0.00 0.00 42 1008.7
20260504000517 20 225 6.4 11.3 0.00 0.00 0.00 42 1008.7
20260503235517 20 248 4.8 9.7 0.00 0.00 0.00 41 1008.7
20260503234517 21 248 11.3 19.3 0.00 0.00 0.00 40 1008.7
20260503233517 21 248 9.7 16.1 0.00 0.00 0.00 40 1008.8
20260503232517 21 270 9.7 14.5 0.00 0.00 0.00 40 1008.8
20260503231517 21 225 8.0 12.9 0.00 0.00 0.00 41 1008.9
20260503230517 21 270 3.2 4.8 0.00 0.00 0.00 42 1008.8
20260503225517 21 248 12.9 22.5 0.00 0.00 0.00 40 1008.8
20260503224517 21 225 9.7 17.7 0.00 0.00 0.00 41 1008.9
20260503223517 21 270 9.7 16.1 0.00 0.00 0.00 41 1009.1
20260503222517 21 248 6.4 16.1 0.00 0.00 0.00 40 1009.0
20260503221517 22 270 12.9 20.9 0.00 0.00 0.00 40 1009.1
20260503220537 22 270 11.3 22.5 0.00 0.00 0.00 40 1009.2
20260503215517 22 248 8.0 16.1 0.00 0.00 0.00 40 1009.1
20260503214517 22 270 16.1 25.7 0.00 0.00 0.00 39 1009.1
20260503213517 21 270 8.0 11.3 0.00 0.00 0.00 45 1009.2
20260503212517 21 293 8.0 16.1 0.00 0.00 0.00 46 1009.2
20260503211517 21 225 9.7 14.5 0.00 0.00 0.00 47 1009.1
20260503210537 20 248 9.7 16.1 0.00 0.00 0.00 48 1009.7
20260503205517 20 270 8.0 17.7 0.00 0.00 0.00 49 1009.8
20260503204517 20 270 11.3 20.9 0.00 0.00 0.00 49 1009.7
20260503203516 20 270 11.3 24.1 0.00 0.00 0.00 49 1009.7
20260503202517 20 248 9.7 19.3 0.00 0.00 0.00 48 1009.8
20260503201517 19 270 11.3 17.7 0.00 0.00 0.00 49 1009.8
20260503200517 19 270 8.0 12.9 0.00 0.00 0.00 48 1010.3
20260503195517 19 225 9.7 16.1 0.00 0.00 0.00 47 1010.3
20260503194516 18 248 17.7 27.4 0.00 0.00 0.00 49 1009.6
20260503193517 18 225 20.9 27.4 0.00 0.00 0.00 49 1009.5
20260503192517 18 203 17.7 33.8 0.00 0.00 0.00 48 1010.8
20260503191517 18 225 14.5 25.7 0.00 0.00 0.00 47 1010.6
20260503190516 19 203 16.1 29.0 0.00 0.00 0.00 46 1010.6
20260503185536 18 248 11.3 24.1 0.00 0.00 0.00 48 1009.9
20260503184517 18 248 19.3 35.4 0.00 0.00 0.00 46 1011.5
20260503183517 18 225 17.7 25.7 0.00 0.00 0.00 47 1010.8
20260503182516 18 203 19.3 40.2 0.00 0.00 0.00 47 1010.9
20260503181516 17 225 20.9 27.4 0.00 0.00 0.00 47 1011.5
20260503180516 17 203 24.1 38.6 0.00 0.00 0.00 48 1010.9
20260503175516 17 203 20.9 30.6 0.00 0.00 0.00 47 1011.2
20260503174516 17 203 14.5 29.0 0.00 0.00 0.00 47 1011.5
20260503173556 18 270 8.0 17.7 0.00 0.00 0.00 48 1012.0
20260503172516 17 180 17.7 27.4 0.00 0.00 0.00 47 1011.4
20260503171516 17 225 17.7 30.6 0.00 0.00 0.00 47 1011.8
20260503170536 17 203 12.9 20.9 0.00 0.00 0.00 46 1011.9